Regional Weather Roundup
Issued by NWS Newport/Morehead, NC

Current Version | Previous Version | Text Only | Print | Product List | Glossary Off
Versions: 1 2 3 4 5 6 7 8 9 10 11 12 13 14 15 16 17 18 19 20 21 22 23 24 25 26 27 28 29 30 31 32 33 34 35 36 37 38 39 40 41 42 43 44 45 46 47 48 49 50
412 ASUS42 KMHX 122025 RWRMHX WEATHER ROUNDUP FOR EASTERN NORTH CAROLINA NATIONAL WEATHER SERVICE NEWPORT/MOREHEAD CITY NC 300 PM EST TUE DEC 12 2017 NOTE: "FAIR" INDICATES FEW OR NO CLOUDS BELOW 12,000 FEET WITH NO SIGNIFICANT WEATHER AND/OR OBSTRUCTIONS TO VISIBILITY NCZ015>017-031-032-045>047-102-103-122100- NORTH COAST CITY SKY/WX TMP DP RH WIND PRES REMARKS EDENTON CLOUDY 55 41 58 W8 29.57S ELIZABETH CITY MOSUNNY 53 39 59 W12 29.55F KITTY HAWK CLOUDY 51 41 68 W6 29.53S MANTEO MOSUNNY 53 40 60 NW7 29.54F $$ NCZ045>047-081-094-103-104-122100- CENTRAL COAST CITY SKY/WX TMP DP RH WIND PRES REMARKS FRISCO SUNNY 58 49 72 W10G21 29.54F $$ NCZ095-097-098-100-101-122100- SOUTHERN COAST CITY SKY/WX TMP DP RH WIND PRES REMARKS BEAUFORT SUNNY 60 45 57 SW18G29 29.55F CEDAR ISLAND NOT AVBL JACKSONVILLE CLOUDY 59 40 49 W16 29.58S PINEY ISLAND N/A N/A N/A N/A W14 29.54F WILMINGTON PTSUNNY 59 40 49 W17 29.60S $$ NCZ011>013-027>030-043-044-078>080-089-090>093-098-122100- COASTAL PLAIN CITY SKY/WX TMP DP RH WIND PRES REMARKS AHOSKIE CLOUDY 51 33 51 W3 29.58S CLINTON MOSUNNY 55 38 54 W7 29.63S ELIZABETHTOWN NOT AVBL GOLDSBORO MOSUNNY 57 33 40 NW13G18 29.59S GREENVILLE CLOUDY 54 34 47 W7 29.63R HAVELOCK SUNNY 60 41 49 W16 29.57F KENANSVILLE MOSUNNY 55 37 50 W10 29.61S KINSTON MOSUNNY 55 37 50 W9 29.60F NEW BERN MOSUNNY 56 40 55 W12 29.58S RICHLANDS CLOUDY 56 40 55 W7 29.60S ROCKY MOUNT MOSUNNY 52 33 48 W13G22 29.60S WASHINGTON MOSUNNY 54 36 49 W7 29.58S WHITEVILLE MOSUNNY 57 39 49 W5 29.62S $$ AMZ130-135-150-152-154-156-158-170-250-252-270-ANZ085-086-088-633-658-670-122100- MARINE OBSERVATIONS STATION/POSITION TIME TEMP WIND PRES WAVE SWELL AIR SEA DIR/SP/G HT/PER HT/PER (UTC) (F) (DEG/KT/KT) (MB) (FT/S) (FT/S) CHESAPEAKE LIGHT NOT AVBL 64 E VA BEACH 1950 54 61 260/ 19/ 23 999.6 7/ 5 DUCK 2000 51 56 260/ 11/ 14 999.9 2 E DUCK 2000 56 N/A 2/15 OREGON INLET 2000 54 47 270/ 10/ 13 999.8 13E OREGON INLT 1948 58 N/A 5/ 7 5/ 7 HATTERAS CG 2000 55 57 270/ 10/ 12 999.9 DIAMOND BUOY 2010 67 74 230/ 27/ 37 999.6 CAPE LOOKOUT 2000 260/ 17/ 24 1001.1 BEAUFORT LAB 2000 60 53 250/ 11/ 17 1000.7 30 SE NEW RVR IN 2008 63 65 240/ 19/ 29 1000.6 30 SE NEW RVR IN 2000 65 N/A 9/ 7 27 SE WRIGHTSVLE 2008 60 66 250/ 25/ 33 1001.8 5 SE WRIGHTSVLE 2008 59 58 250/ 14/ 19 1001.5 225 S CAPE HAT 1950 70 75 220/ 27/ 33 1005.7 8/ 7 2/11 41 SE CHARLESTON 2010 62 75 250/ 25/ 33 1004.4 $$

USA.gov is the U.S. government's official web portal to all federal, state and local government web resources and services.